When you browse on this site, cookies collect data to enhance your experience and personalize the content and advertising you see.
Visit our Privacy Policy to learn more. By continuing to use the site, you agree to this use of cookies and data.
  • In Hungary
  • List of Countries
  • For 7 days
  • Water Temperature
  • Satellite Maps
  • Weather Map
  • News
  • Weather Widgets
  • user-avatar
    Login

    Hourly Weather Podborowisko

    Today, 22 May, Wednesday

    Time Temperature Precipitation Wind Pressure Humidity
    00:00 +14°C° 0 mm 2 mps 740 mmHg 96%
    01:00 +13°C° 0 mm 2 mps 740 mmHg 96%
    02:00 +12°C° 0 mm 2 mps 740 mmHg 96%
    03:00 +12°C° 0 mm 2 mps 740 mmHg 95%
    04:00 +11°C° 0 mm 3 mps 740 mmHg 95%
    05:00 +11°C° 0 mm 3 mps 740 mmHg 95%
    06:00 +12°C° 0 mm 3 mps 740 mmHg 89%
    07:00 +14°C° 0 mm 4 mps 741 mmHg 83%
    08:00 +15°C° 0 mm 4 mps 741 mmHg 77%
    09:00 +17°C° 0 mm 4 mps 741 mmHg 73%
    10:00 +19°C° 0 mm 4 mps 741 mmHg 69%
    11:00 +20°C° 0 mm 4 mps 741 mmHg 64%
    12:00 +20°C° 0.3 mm 4 mps 741 mmHg 64%
    13:00 +21°C° 0.3 mm 4 mps 741 mmHg 64%
    14:00 +21°C° 0.3 mm 4 mps 741 mmHg 64%
    15:00 +21°C° 0.4 mm 3 mps 741 mmHg 67%
    16:00 +21°C° 0.4 mm 3 mps 741 mmHg 69%
    17:00 +20°C° 0.4 mm 3 mps 741 mmHg 71%
    18:00 +19°C° 0.1 mm 3 mps 741 mmHg 77%
    19:00 +18°C° 0.1 mm 2 mps 741 mmHg 82%
    20:00 +17°C° 0.1 mm 2 mps 740 mmHg 88%
    21:00 +16°C° 0 mm 2 mps 741 mmHg 90%
    22:00 +15°C° 0 mm 1 mps 741 mmHg 91%
    23:00 +14°C° 0 mm 1 mps 741 mmHg 93%

    Tomorrow, 23 May, Thursday

    Time Temperature Precipitation Wind Pressure Humidity
    00:00 +14°C° 0 mm 1 mps 741 mmHg 93%
    01:00 +13°C° 0 mm 1 mps 741 mmHg 93%
    02:00 +13°C° 0 mm 1 mps 741 mmHg 93%
    03:00 +13°C° 0 mm 1 mps 742 mmHg 93%
    04:00 +13°C° 0 mm 1 mps 742 mmHg 93%
    05:00 +12°C° 0 mm 0 mps 742 mmHg 93%
    06:00 +15°C° 0 mm 1 mps 742 mmHg 87%
    07:00 +18°C° 0 mm 1 mps 742 mmHg 81%
    08:00 +19°C° 0 mm 1 mps 742 mmHg 76%
    09:00 +21°C° 0 mm 1 mps 743 mmHg 69%
    10:00 +21°C° 0 mm 0 mps 743 mmHg 63%
    11:00 +23°C° 0 mm 0 mps 743 mmHg 56%
    12:00 +25°C° 0 mm 1 mps 743 mmHg 54%
    13:00 +25°C° 0 mm 1 mps 743 mmHg 51%
    14:00 +26°C° 0 mm 1 mps 742 mmHg 49%
    15:00 +25°C° 0.3 mm 2 mps 742 mmHg 56%
    16:00 +24°C° 0.3 mm 3 mps 742 mmHg 63%
    17:00 +22°C° 0.3 mm 4 mps 742 mmHg 71%
    18:00 +20°C° 0.4 mm 4 mps 742 mmHg 78%
    19:00 +19°C° 0.4 mm 4 mps 743 mmHg 84%
    20:00 +18°C° 0.4 mm 4 mps 743 mmHg 91%
    21:00 +17°C° 0 mm 3 mps 743 mmHg 92%
    22:00 +16°C° 0 mm 3 mps 743 mmHg 93%
    23:00 +14°C° 0 mm 3 mps 744 mmHg 94%

    Day after tomorrow, 24 May, Friday

    Time Temperature Precipitation Wind Pressure Humidity
    00:00 +13°C° 0 mm 4 mps 744 mmHg 94%
    01:00 +13°C° 0 mm 4 mps 744 mmHg 94%
    02:00 +12°C° 0 mm 4 mps 744 mmHg 94%
    03:00 +12°C° 0 mm 4 mps 744 mmHg 93%
    04:00 +12°C° 0 mm 3 mps 744 mmHg 93%
    05:00 +12°C° 0 mm 3 mps 744 mmHg 93%
    06:00 +12°C° 0 mm 3 mps 744 mmHg 90%
    07:00 +13°C° 0 mm 3 mps 744 mmHg 87%
    08:00 +13°C° 0 mm 3 mps 744 mmHg 83%
    09:00 +14°C° 0 mm 3 mps 744 mmHg 79%
    10:00 +17°C° 0 mm 3 mps 744 mmHg 75%
    11:00 +18°C° 0 mm 4 mps 744 mmHg 71%
    12:00 +19°C° 0 mm 4 mps 744 mmHg 70%
    13:00 +19°C° 0 mm 4 mps 744 mmHg 70%
    14:00 +19°C° 0 mm 4 mps 744 mmHg 69%
    15:00 +19°C° 0 mm 4 mps 744 mmHg 69%
    16:00 +20°C° 0 mm 4 mps 743 mmHg 68%
    17:00 +20°C° 0 mm 4 mps 743 mmHg 67%
    18:00 +19°C° 0 mm 3 mps 743 mmHg 71%
    19:00 +17°C° 0 mm 3 mps 743 mmHg 75%
    20:00 +16°C° 0 mm 3 mps 743 mmHg 80%
    21:00 +15°C° 0 mm 2 mps 743 mmHg 82%
    22:00 +14°C° 0 mm 2 mps 743 mmHg 85%
    23:00 +12°C° 0 mm 2 mps 744 mmHg 88%

    25 May, Saturday

    Time Temperature Precipitation Wind Pressure Humidity
    00:00 +10°C° 0 mm 2 mps 744 mmHg 87%
    01:00 +11°C° 0 mm 1 mps 743 mmHg 85%
    02:00 +10°C° 0 mm 1 mps 743 mmHg 84%
    03:00 +10°C° 0 mm 1 mps 743 mmHg 83%
    04:00 +10°C° 0 mm 1 mps 743 mmHg 82%
    05:00 +10°C° 0 mm 1 mps 743 mmHg 82%
    06:00 +12°C° 0 mm 1 mps 743 mmHg 79%
    07:00 +14°C° 0 mm 2 mps 743 mmHg 76%
    08:00 +16°C° 0 mm 2 mps 743 mmHg 73%
    09:00 +17°C° 0.2 mm 3 mps 743 mmHg 72%
    10:00 +18°C° 0.2 mm 3 mps 743 mmHg 70%
    11:00 +18°C° 0.2 mm 4 mps 742 mmHg 69%
    12:00 +19°C° 0.3 mm 4 mps 742 mmHg 68%
    13:00 +19°C° 0.3 mm 5 mps 742 mmHg 68%
    14:00 +19°C° 0.3 mm 5 mps 742 mmHg 67%
    15:00 +19°C° 0.1 mm 5 mps 742 mmHg 65%
    16:00 +19°C° 0.1 mm 6 mps 742 mmHg 64%
    17:00 +19°C° 0.1 mm 6 mps 742 mmHg 62%
    18:00 +16°C° 0.1 mm 5 mps 742 mmHg 68%
    19:00 +14°C° 0.1 mm 4 mps 742 mmHg 74%
    20:00 +13°C° 0.1 mm 4 mps 742 mmHg 80%
    21:00 +12°C° 0 mm 3 mps 742 mmHg 81%
    22:00 +11°C° 0 mm 3 mps 743 mmHg 82%
    23:00 +11°C° 0 mm 3 mps 743 mmHg 84%

    26 May, Sunday

    Time Temperature Precipitation Wind Pressure Humidity
    00:00 +11°C° 0.1 mm 3 mps 743 mmHg 84%
    01:00 +11°C° 0.1 mm 3 mps 743 mmHg 85%
    02:00 +11°C° 0.1 mm 3 mps 743 mmHg 85%
    03:00 +10°C° 0.1 mm 4 mps 743 mmHg 86%
    04:00 +10°C° 0.1 mm 4 mps 742 mmHg 87%
    05:00 +10°C° 0.1 mm 4 mps 742 mmHg 89%
    06:00 +10°C° 0.1 mm 4 mps 742 mmHg 88%
    07:00 +10°C° 0.1 mm 5 mps 742 mmHg 88%
    08:00 +10°C° 0.1 mm 5 mps 742 mmHg 87%
    09:00 +10°C° 0.1 mm 5 mps 741 mmHg 85%
    10:00 +12°C° 0.1 mm 5 mps 741 mmHg 83%
    11:00 +11°C° 0.1 mm 6 mps 741 mmHg 80%
    12:00 +11°C° 0.2 mm 6 mps 741 mmHg 79%
    13:00 +12°C° 0.2 mm 7 mps 741 mmHg 77%
    14:00 +12°C° 0.2 mm 7 mps 741 mmHg 75%
    15:00 +11°C° 0.2 mm 7 mps 741 mmHg 76%
    16:00 +11°C° 0.2 mm 6 mps 741 mmHg 77%
    17:00 +10°C° 0.2 mm 6 mps 741 mmHg 79%
    18:00 +10°C° 0.1 mm 5 mps 741 mmHg 80%
    19:00 +10°C° 0.1 mm 5 mps 741 mmHg 81%
    20:00 +10°C° 0.1 mm 4 mps 740 mmHg 82%
    21:00 +10°C° 0.1 mm 4 mps 741 mmHg 84%
    22:00 +8°C° 0.1 mm 4 mps 741 mmHg 86%
    23:00 +7°C° 0.1 mm 4 mps 741 mmHg 87%

    27 May, Monday

    Time Temperature Precipitation Wind Pressure Humidity
    00:00 +7°C° 0 mm 4 mps 741 mmHg 86%
    01:00 +7°C° 0 mm 4 mps 741 mmHg 86%
    02:00 +6°C° 0 mm 4 mps 741 mmHg 85%
    03:00 +6°C° 0 mm 4 mps 741 mmHg 84%
    04:00 +6°C° 0 mm 4 mps 742 mmHg 84%
    05:00 +5°C° 0 mm 4 mps 742 mmHg 84%
    06:00 +7°C° 0 mm 4 mps 742 mmHg 80%
    07:00 +8°C° 0 mm 5 mps 742 mmHg 75%
    08:00 +9°C° 0 mm 5 mps 743 mmHg 71%
    09:00 +12°C° 0 mm 5 mps 743 mmHg 67%
    10:00 +13°C° 0 mm 6 mps 743 mmHg 63%
    11:00 +14°C° 0 mm 6 mps 743 mmHg 59%
    12:00 +15°C° 0 mm 6 mps 743 mmHg 57%
    13:00 +16°C° 0 mm 6 mps 743 mmHg 56%
    14:00 +17°C° 0 mm 5 mps 743 mmHg 54%
    15:00 +17°C° 0 mm 5 mps 743 mmHg 58%
    16:00 +17°C° 0 mm 5 mps 742 mmHg 62%
    17:00 +19°C° 0 mm 5 mps 742 mmHg 67%
    18:00 +17°C° 0.3 mm 5 mps 742 mmHg 75%
    19:00 +16°C° 0.3 mm 5 mps 741 mmHg 83%
    20:00 +15°C° 0.3 mm 5 mps 741 mmHg 91%
    21:00 +14°C° 0.1 mm 4 mps 741 mmHg 92%
    22:00 +14°C° 0.1 mm 4 mps 741 mmHg 94%
    23:00 +13°C° 0.1 mm 4 mps 742 mmHg 95%
    Show more